Location: Brienzwiler
(46.7508°N, 8.1014°E)
Time: 01:43:25
(UTC+00:00)

NOSS 3-4 (A) - Pass Details

Date: 05 July 2020
Orbit: 892 x 1320 km, 63.4° (Epoch: 12 July)

Event Time Altitude Azimuth Distance (km) Brightness Sun altitude
Rises 22:05:24 0° 320° (NW) 3,804 8.0 -17.9°
Reaches altitude 10° 22:07:56 10° 321° (NW) 2,906 7.1 -18.0°
Maximum altitude 22:14:54 84° 49° (NE) 1,166 3.9 -18.4°
Enters shadow 22:19:47 25° 138° (SE) 2,232 4.8 -18.7°
